#timestamp,LO_Frequency,Hit,StdDev 
1680872415.7,286046996.8,N
1680872435.5,286046998.4,N
1680872455.4,286047001.1,N
1680872475.2,286047001.2,N
1680872495.0,286047001.0,N
1680872495.9,286047001.0,N
1680872515.8,286046999.9,N
1680872535.6,286047001.2,N
1680872555.4,286046996.6,N
1680872575.3,286046995.4,N
1680872595.1,286046995.8,N
1680872615.9,286046995.4,N
1680872635.7,286046995.2,N
1680872655.5,286046995.1,N
1680872675.4,286046997.1,N
1680872695.2,286046997.7,N
1680872715.0,286046993.7,N
1680872715.9,286046993.7,N
1680872735.8,286046994.2,N
1680872755.6,286046996.2,N
1680872775.5,286046993.4,N
1680872795.3,286046993.3,N
1680872815.1,286046995.2,N
1680872835.9,286046997.6,N
1680872855.7,286046997.9,N
1680872875.5,286046995.0,N
1680872895.4,286046994.5,N
1680872915.2,286046993.6,N
1680872935.1,286046997.6,N
1680872936.0,286046997.6,N
1680872955.8,286046997.9,N
1680872975.6,286046997.0,N
1680872995.5,286046999.6,N
1680873015.3,286046998.9,N
1680873035.1,286046999.0,N
1680873055.9,286046999.6,N
1680873075.7,286047011.9,Y
1680873095.6,286047002.6,P
1680873115.4,286047002.1,N
1680873135.2,286047002.1,N
1680873155.1,286047003.9,N
1680873156.0,286047003.9,N
1680873175.8,286047003.2,N
1680873195.6,286047002.9,N
1680873215.5,286047004.8,N
1680873235.3,286047005.9,N
1680873255.2,286047004.2,N
1680873275.9,286047002.3,N
1680873295.7,286047002.4,N
1680873315.6,286047002.1,N
1680873335.4,286047002.6,N
1680873355.2,286047001.4,N
1680873375.1,286047002.9,N
1680873376.0,286047002.9,N
1680873395.8,286047003.8,N
1680873415.7,286047003.7,N
1680873435.5,286047003.4,N
1680873455.3,286047003.9,N
1680873475.2,286047004.4,N
1680873495.0,286047004.3,N
1680873495.9,286047004.3,N
1680873515.7,286047002.1,N
1680873535.6,286046999.9,N
1680873555.4,286046998.4,N
1680873575.3,286047001.8,N
1680873595.1,286047002.8,N
1680873596.0,286047002.8,N
1680873615.8,286047002.5,N
1680873635.7,286047000.8,N
1680873655.5,286046998.3,N
1680873675.4,286046996.8,N
1680873695.2,286046997.3,N
1680873715.0,286046995.2,N
1680873715.9,286046995.2,N
1680873735.8,286046996.2,N
1680873755.6,286046995.6,N
1680873775.4,286046996.1,N
1680873795.3,286046993.6,N
1680873815.1,286046994.4,N
1680873835.9,286046990.4,N
1680873855.7,286046990.7,N
1680873875.5,286046990.6,N
1680873895.4,286046990.7,N
1680873915.2,286046993.2,N
1680873935.1,286046991.8,N
1680873936.0,286046991.8,N
1680873955.8,286046992.8,N
1680873975.6,286046992.6,N
1680873995.5,286046990.5,N
1680874015.3,286046990.3,N
1680874035.1,286046989.2,N
1680874055.9,286046988.8,N
1680874075.7,286046991.6,N
1680874095.6,286046989.7,N
1680874115.4,286046987.2,Y
1680874135.2,286046993.4,P
1680874155.1,286046995.9,P
1680874156.0,286046995.9,P
1680874175.8,286046996.1,Y
1680874195.7,286047000.7,P
1680874215.5,286046998.1,N
1680874235.3,286047000.6,N
1680874255.2,286047000.0,N
1680874275.0,286047001.0,N
1680874275.9,286047001.0,N
1680874295.8,286047001.0,N
1680874315.6,286046998.9,N
1680874335.4,286047000.8,N
1680874355.3,286046998.3,N
1680874375.1,286047000.8,N
1680874395.9,286047000.2,N
1680874415.7,286047001.6,N
1680874435.5,286047002.5,N
1680874455.4,286047002.0,N
1680874475.2,286047003.8,N
1680874495.0,286047003.7,N
1680874495.9,286047003.7,N
1680874515.8,286047005.9,N
1680874535.6,286047005.5,N
1680874555.5,286047002.9,N
1680874575.3,286047003.6,N
1680874595.1,286047003.5,N
1680874615.9,286047004.1,N
1680874635.7,286047003.6,N
1680874655.5,286047002.0,N
1680874675.4,286047002.2,N
1680874695.2,286047001.9,N
1680874715.1,286047002.1,N
1680874716.0,286047002.1,N
1680874735.8,286047004.3,N
1680874755.6,286047001.8,N
1680874775.5,286047004.0,N
1680874795.3,286047002.2,N
1680874815.1,286047002.0,N
1680874835.9,286047002.1,N
1680874855.7,286047000.2,N
1680874875.6,286047000.3,N
1680874895.4,286047002.7,N
1680874915.2,286047004.2,N
1680874935.1,286047002.0,N
1680874936.0,286047002.0,N
1680874955.8,286047002.1,N
1680874975.6,286047002.1,N
1680874995.5,286047001.9,N
1680875015.3,286047001.8,N
1680875035.2,286047001.8,N
1680875055.9,286047003.9,Y
1680875075.7,286047002.6,P
1680875095.6,286047002.0,P
1680875115.4,286046999.7,N
1680875135.3,286047002.6,N
1680875155.1,286047001.5,N
1680875156.0,286047001.5,N
1680875175.8,286047002.2,N
1680875195.7,286047003.9,Y
1680875215.5,286047002.2,P
1680875235.3,286047000.5,N
1680875255.2,286047000.5,N
1680875275.0,286047000.4,N
1680875275.9,286047000.4,N
1680875295.8,286046999.3,N
1680875315.6,286046995.0,Y
1680875335.4,286046994.3,P
1680875355.3,286046994.1,N
1680875375.1,286046992.1,N
1680875395.8,286046991.8,N
1680875415.7,286046994.0,N
1680875435.5,286046994.6,N
1680875455.4,286046993.8,N
1680875475.2,286046993.9,N
1680875495.0,286046994.8,N
1680875495.9,286046994.8,N
1680875515.8,286046996.0,N
1680875535.6,286046995.8,N
1680875555.4,286046997.6,N
1680875575.3,286046997.2,N
1680875595.1,286046996.6,N
1680875615.9,286046997.5,N
1680875635.7,286046999.6,N
1680875655.5,286046996.7,N
1680875675.4,286046996.8,N
1680875695.2,286046999.5,N
1680875715.0,286046998.3,N
1680875715.9,286046998.3,N
1680875735.8,286046999.3,N
1680875755.6,286046998.3,N
1680875775.4,286046996.5,N
1680875795.3,286046999.3,N
1680875815.1,286046996.8,N
1680875835.9,286046996.9,N
1680875855.7,286046997.0,N
1680875875.5,286046999.0,N
1680875895.4,286047000.5,N
1680875915.2,286047002.3,N
1680875935.0,286047004.3,N
1680875935.9,286047004.3,N
1680875955.8,286047004.0,N
1680875975.6,286047001.8,N
1680875995.5,286047003.7,N
